Hourly Data Report for October 28, 2015

All times are specified in Local Standard Time (LST). Add 1 hour to adjust for Daylight Saving Time where and when it is observed.

KAMLOOPS A
BRITISH COLUMBIA

50°42'09.000" N
120°26'55.000" W
345.30 m
1163781
71887
YKA

Download Data

Hourly Data (October 2015)
Hourly Data Report for October 28, 2015
Temp Definition
°C
Dew Point Temp Definition
°C
Rel Hum Definition
%
Wind Dir Definition
10's deg

Wind Spd Definition
km/h
Visibility Definition
km
Stn Press Definition
kPa
Hmdx Definition


Wind Chill Definition


Weather Definition


TIME
00:00 Legend Double Dagger 2.8 0.7 86 11 13 64.4 97.79     LegendNANA
01:00 Legend Double Dagger 2.2 0.4 88 9 12 64.4 97.76     Mostly Cloudy
02:00 Legend Double Dagger 2.3 0.4 87 10 17 64.4 97.74     LegendNANA
03:00 Legend Double Dagger 2.5 0.2 85 10 19 64.4 97.69     LegendNANA
04:00 Legend Double Dagger 2.4 0.1 85 11 18 64.4 97.65     Mostly Cloudy
05:00 Legend Double Dagger 2.3 0.0 85 11 22 64.4 97.61     LegendNANA
06:00 Legend Double Dagger 2.5 0.2 85 11 19 64.4 97.58     LegendNANA
07:00 Legend Double Dagger 2.5 0.7 88 11 20 64.4 97.54     Mostly Cloudy
08:00 Legend Double Dagger 2.9 0.8 86 12 21 64.4 97.54     LegendNANA
09:00 Legend Double Dagger 3.4 1.1 85 11 20 64.4 97.52     LegendNANA
10:00 Legend Double Dagger 4.1 2.6 90 10 19 48.3 97.49     Rain Showers
11:00 Legend Double Dagger 4.7 3.2 90 10 22 48.3 97.46     Rain Showers
12:00 Legend Double Dagger 5.0 3.7 91 10 19 32.2 97.40     Rain Showers
13:00 Legend Double Dagger 5.5 4.3 92 10 18 32.2 97.33     Rain Showers
14:00 Legend Double Dagger 6.1 4.3 88 11 18 32.2 97.27     Rain Showers
15:00 Legend Double Dagger 6.0 4.7 91 11 16 24.1 97.26     Rain Showers
16:00 Legend Double Dagger 5.9 4.6 91 14 16 24.1 97.25     Rain Showers
17:00 Legend Double Dagger 6.1 4.8 91 13 9 24.1 97.25     Rain
18:00 Legend Double Dagger 6.2 4.9 91 12 11 64.4 97.24     LegendNANA
19:00 Legend Double Dagger 5.6 4.4 92 7 8 32.2 97.20     Cloudy
20:00 Legend Double Dagger 5.6 4.6 93 10 5 32.2 97.18     LegendNANA
21:00 Legend Double Dagger 5.6 4.6 93 6 5 32.2 97.20     LegendNANA
22:00 Legend Double Dagger 6.0 4.7 91 7 8 32.2 97.20     Cloudy
23:00 Legend Double Dagger 6.0 5.0 93 9 3 32.2 97.21     LegendNANA

Notes on Data Quality.

Legend

  • E = Estimated
  • M = Missing
  • NA = Not Available
  • ‡ = Partner data that is not subject to review by the National Climate Archives
Date modified: